TimeCDT,TemperatureF,Dew PointF,Humidity,Sea Level PressureIn,VisibilityMPH,Wind Direction,Wind SpeedMPH,Gust SpeedMPH,PrecipitationIn,Events,Conditions,WindDirDegrees,DateUTC
12:07 AM,69.1,66.0,90,29.90,8.0,South,8.1,-,N/A,,Partly Cloudy,180,2013-08-06 05:07:00
12:54 AM,68.0,64.9,90,29.90,7.0,SSW,8.1,-,N/A,,Scattered Clouds,200,2013-08-06 05:54:00
1:32 AM,68.0,64.9,90,29.91,6.0,SW,4.6,-,N/A,,Mostly Cloudy,230,2013-08-06 06:32:00
1:54 AM,66.9,64.9,93,29.90,5.0,SW,6.9,-,N/A,,Mostly Cloudy,220,2013-08-06 06:54:00
2:54 AM,68.0,64.9,90,29.88,5.0,SSW,8.1,-,N/A,,Overcast,210,2013-08-06 07:54:00
3:11 AM,66.9,64.9,93,29.87,4.0,SSW,6.9,-,N/A,,Overcast,200,2013-08-06 08:11:00
3:54 AM,66.9,64.9,93,29.86,4.0,SSW,8.1,-,N/A,,Overcast,200,2013-08-06 08:54:00
4:46 AM,66.9,64.9,93,29.88,2.0,SW,6.9,-,N/A,,Overcast,220,2013-08-06 09:46:00
4:54 AM,66.9,64.9,93,29.87,2.5,SSW,6.9,-,N/A,,Overcast,210,2013-08-06 09:54:00
5:05 AM,66.9,66.0,97,29.87,3.0,SSW,6.9,-,N/A,,Overcast,200,2013-08-06 10:05:00
5:54 AM,68.0,66.0,93,29.88,3.0,SSW,9.2,-,N/A,,Overcast,210,2013-08-06 10:54:00
6:18 AM,68.0,66.0,93,29.90,2.0,SW,6.9,-,N/A,,Overcast,220,2013-08-06 11:18:00
6:30 AM,68.0,66.0,93,29.90,1.5,SSW,8.1,-,N/A,,Overcast,210,2013-08-06 11:30:00
6:43 AM,68.0,66.0,93,29.91,1.2,SSW,6.9,-,N/A,,Overcast,210,2013-08-06 11:43:00
6:54 AM,68.0,66.0,93,29.90,1.5,SSW,8.1,-,N/A,,Overcast,210,2013-08-06 11:54:00
7:34 AM,68.0,66.0,93,29.91,2.5,SSW,8.1,-,N/A,,Overcast,210,2013-08-06 12:34:00
7:54 AM,68.0,66.0,93,29.91,3.0,SSW,8.1,-,N/A,,Overcast,200,2013-08-06 12:54:00
8:03 AM,69.1,66.9,93,29.92,2.5,SSW,9.2,-,N/A,,Overcast,200,2013-08-06 13:03:00
8:15 AM,69.1,66.9,93,29.91,1.8,SSW,5.8,-,N/A,,Overcast,210,2013-08-06 13:15:00
8:24 AM,69.1,66.9,93,29.91,2.5,SSW,8.1,-,N/A,,Overcast,200,2013-08-06 13:24:00
8:32 AM,69.1,66.9,93,29.91,3.0,SSW,6.9,-,N/A,,Overcast,210,2013-08-06 13:32:00
8:54 AM,70.0,66.9,90,29.90,4.0,SW,4.6,-,N/A,,Overcast,230,2013-08-06 13:54:00
9:45 AM,71.1,66.9,87,29.92,6.0,WSW,10.4,-,N/A,,Overcast,240,2013-08-06 14:45:00
9:54 AM,73.0,68.0,84,29.91,7.0,SW,8.1,-,N/A,,Overcast,230,2013-08-06 14:54:00
10:54 AM,75.0,69.1,82,29.92,6.0,SW,8.1,-,N/A,,Haze,220,2013-08-06 15:54:00
11:50 AM,77.0,69.8,78,29.91,6.0,Variable,4.6,-,N/A,,Haze,0,2013-08-06 16:50:00
11:54 AM,75.9,69.1,79,29.90,7.0,SSW,3.5,-,N/A,,Mostly Cloudy,210,2013-08-06 16:54:00
12:07 PM,77.0,69.1,76,29.90,7.0,Calm,Calm,-,N/A,,Partly Cloudy,0,2013-08-06 17:07:00
12:54 PM,82.0,70.0,67,29.88,9.0,Variable,3.5,-,N/A,,Clear,0,2013-08-06 17:54:00
1:54 PM,82.0,70.0,67,29.86,10.0,Calm,Calm,-,N/A,,Clear,0,2013-08-06 18:54:00
2:54 PM,84.0,71.1,65,29.84,10.0,South,3.5,-,N/A,,Clear,180,2013-08-06 19:54:00
3:54 PM,86.0,70.0,59,29.83,10.0,SSW,9.2,-,N/A,,Clear,210,2013-08-06 20:54:00
4:54 PM,86.0,70.0,59,29.83,10.0,South,6.9,-,N/A,,Clear,180,2013-08-06 21:54:00
5:54 PM,82.9,71.1,67,29.84,10.0,South,9.2,-,N/A,,Clear,190,2013-08-06 22:54:00
6:54 PM,82.9,71.1,67,29.84,10.0,South,9.2,-,N/A,,Clear,180,2013-08-06 23:54:00
7:54 PM,80.1,70.0,71,29.83,10.0,SSE,4.6,-,N/A,,Clear,160,2013-08-07 00:54:00
8:54 PM,79.0,70.0,74,29.85,10.0,SSE,4.6,-,N/A,,Clear,160,2013-08-07 01:54:00
9:54 PM,78.1,71.1,79,29.87,10.0,South,8.1,-,N/A,,Partly Cloudy,180,2013-08-07 02:54:00
10:54 PM,77.0,71.1,82,29.86,8.0,South,9.2,-,N/A,,Partly Cloudy,190,2013-08-07 03:54:00
11:54 PM,75.9,71.1,85,29.85,7.0,South,9.2,-,N/A,,Clear,190,2013-08-07 04:54:00